This demonstration page uses our WeatherBlox Daily Observations layout. Learn more.

Left ArrowRight Arrow

Hourly Observations for February 24, 2017

Temp ( °F °C ) Dew Point ( °F °C ) Humidity (%) Winds ( mph kmh ) Pressure ( in mb ) Visibility ( mi km ) Precip ( " mm )
12:53 am 00:53 Clear 63 17.2 11 -11.7 13 13 W 20 31 29.61 1003 10 16 0.00 0.00
1:53 am 01:53 undefined N/A N/A N/A undefined N/A N/A N/A 0.00 0.00
2:53 am 02:53 undefined 52 11.1 9 -12.8 17 17 undefined N/A 29.66 1004 N/A 0.00 0.00
3:53 am 03:53 Clear 50 10 10 -12.2 20 20 WNW 10 17 29.68 1005 10 16 0.00 0.00
4:53 am 04:53 Clear 46 7.8 10 -12.2 23 23 W 6 9 29.71 1006 10 16 0.00 0.00
5:53 am 05:53 Clear 44 6.7 10 -12.2 25 25 W 10 17 29.74 1007 10 16 0.00 0.00
6:53 am 06:53 Clear 42 5.6 10 -12.2 27 27 VRB 7 11 29.78 1008 10 16 0.00 0.00
7:53 am 07:53 Sunny 39 3.9 12 -11.1 33 33 VRB 5 7 29.82 1010 10 16 0.00 0.00
8:53 am 08:53 Sunny 51 10.6 13 -10.6 22 22 NNW 6 9 29.84 1010 10 16 0.00 0.00
9:53 am 09:53 Sunny 59 15 10 -12.2 14 14 N 12 19 29.86 1011 10 16 0.00 0.00
10:53 am 10:53 Sunny 59 15 12 -11.1 15 15 NNE 10 17 29.91 1013 10 16 0.00 0.00
11:53 am 11:53 Sunny 63 17.2 11 -11.7 13 13 NNE 8 13 29.88 1012 10 16 0.00 0.00
12:53 pm 12:53 Sunny 66 18.9 5 -15 9 9 WNW 8 13 29.83 1010 10 16 0.00 0.00
1:53 pm 13:53 Sunny 68 20 4 -15.6 8 8 W 17 28 29.80 1009 10 16 0.00 0.00
2:53 pm 14:53 Sunny 71 21.7 -3 -19.4 5 5 W 26 43 29.78 1009 10 16 0.00 0.00
3:53 pm 15:53 Sunny 71 21.7 -6 -21.1 4 4 W 24 39 29.78 1008 10 16 0.00 0.00
4:53 pm 16:53 Sunny 70 21.1 -4 -20 5 5 W 24 39 29.79 1009 10 16 0.00 0.00
5:53 pm 17:53 Sunny 68 20 -1 -18.3 6 6 W 22 35 29.81 1010 10 16 0.00 0.00
6:53 pm 18:53 Clear 64 17.8 1 -17.2 8 8 W 15 24 29.84 1010 10 16 0.00 0.00
7:53 pm 19:53 Clear 59 15 1 -17.2 9 9 W 14 22 29.88 1012 10 16 0.00 0.00
8:53 pm 20:53 Clear 56 13.3 2 -16.7 11 11 WNW 10 17 29.89 1012 10 16 0.00 0.00
9:53 pm 21:53 Clear 50 10 4 -15.6 15 15 NW 9 15 29.91 1013 10 16 0.00 0.00
10:53 pm 22:53 Clear 44 6.7 5 -15 20 20 N 10 17 29.94 1014 10 16 0.00 0.00
11:53 pm 23:53 Clear 42 5.6 5 -15 21 21 NNE 7 11 29.96 1014 10 16 0.00 0.00

Powered by AerisWeather